User: anonymous   Login
Location: Pegasus Observatory
(35.6569°N, 82.5850°W)
Time: 08:15:29
(UTC-04:00)
Language:

PCSat - Orbit

View from above orbital plane
View from above orbital plane
View from above satellite
View from above satellite

Ground track
Ground track

The orbit data is extracted from the following two-line orbital elements,

1 26931U 01043C   20089.11914466 -.00000025  00000-0  22075-4 0  9998
2 26931  67.0533 349.7069 0006038 265.3507  94.6905 14.30571410965650
Epoch (UTC): 29 March 2020 02:51:34
Eccentricity: 0.0006038
inclination: 67.0533°
perigee height: 785 km
apogee height: 794 km
right ascension of ascending node: 349.7069°
argument of perigee: 265.3507°
revolutions per day: 14.30571410
mean anomaly at epoch: 94.6905°
orbit number at epoch: 96565

The dashed part of the orbit path shows where the satellite is in the earth's shadow,  

DLR